TimeMST,TemperatureF,Dew PointF,Humidity,Sea Level PressureIn,VisibilityMPH,Wind Direction,Wind SpeedMPH,Gust SpeedMPH,PrecipitationIn,Events,Conditions,WindDirDegrees,DateUTC
12:53 AM,45.0,30.9,58,29.96,10.0,SSE,10.4,-,N/A,,Clear,150,2012-11-21 07:53:00
1:53 AM,43.0,30.0,60,29.95,10.0,South,10.4,-,N/A,,Clear,170,2012-11-21 08:53:00
2:53 AM,43.0,30.0,60,29.95,10.0,SSE,9.2,-,N/A,,Clear,160,2012-11-21 09:53:00
3:53 AM,45.0,30.0,56,29.94,10.0,SE,9.2,-,N/A,,Clear,140,2012-11-21 10:53:00
4:53 AM,44.1,30.0,58,29.94,10.0,SE,6.9,-,N/A,,Clear,140,2012-11-21 11:53:00
5:53 AM,44.1,28.9,55,29.94,10.0,SSE,8.1,-,N/A,,Clear,150,2012-11-21 12:53:00
6:53 AM,48.9,27.0,43,29.94,10.0,South,13.8,-,N/A,,Clear,180,2012-11-21 13:53:00
7:53 AM,45.0,28.0,52,29.97,10.0,South,8.1,-,N/A,,Clear,180,2012-11-21 14:53:00
8:53 AM,52.0,28.0,40,29.96,10.0,SW,4.6,-,N/A,,Clear,230,2012-11-21 15:53:00
9:53 AM,54.0,30.0,40,29.96,10.0,Calm,Calm,-,N/A,,Clear,0,2012-11-21 16:53:00
10:53 AM,55.9,28.9,36,29.96,10.0,Variable,3.5,-,N/A,,Partly Cloudy,0,2012-11-21 17:53:00
11:53 AM,55.0,30.0,38,29.94,10.0,Calm,Calm,-,N/A,,Clear,0,2012-11-21 18:53:00
12:53 PM,57.0,28.9,34,29.90,10.0,SW,4.6,-,N/A,,Clear,230,2012-11-21 19:53:00
1:53 PM,57.0,33.1,40,29.90,10.0,Calm,Calm,-,N/A,,Mostly Cloudy,0,2012-11-21 20:53:00
2:53 PM,55.0,35.1,47,29.89,10.0,NNW,3.5,-,N/A,,Overcast,330,2012-11-21 21:53:00
3:53 PM,53.1,35.1,50,29.89,10.0,NW,5.8,-,N/A,,Overcast,310,2012-11-21 22:53:00
4:53 PM,51.1,36.0,56,29.92,10.0,NNW,3.5,-,N/A,,Overcast,330,2012-11-21 23:53:00
5:53 PM,51.1,34.0,52,29.91,10.0,Calm,Calm,-,0.00,,Overcast,0,2012-11-22 00:53:00
6:53 PM,51.1,33.1,50,29.92,10.0,NW,9.2,-,0.00,,Overcast,310,2012-11-22 01:53:00
7:53 PM,48.9,35.1,59,29.96,10.0,Calm,Calm,-,0.00,,Overcast,0,2012-11-22 02:53:00
8:53 PM,48.0,33.1,56,29.99,10.0,NW,11.5,-,0.00,,Overcast,320,2012-11-22 03:53:00
9:53 PM,44.1,36.0,73,30.05,10.0,NNW,12.7,-,N/A,,Overcast,340,2012-11-22 04:53:00
10:53 PM,42.1,33.1,70,30.08,10.0,NNW,13.8,-,0.00,,Overcast,330,2012-11-22 05:53:00
11:53 PM,43.0,28.0,56,30.12,10.0,NNW,9.2,19.6,N/A,,Overcast,330,2012-11-22 06:53:00